Time,TemperatureF,DewpointF,PressureIn,WindDirection,WindDirectionDegrees,WindSpeedMPH,WindSpeedGustMPH,Humidity,HourlyPrecipIn,Conditions,Clouds,dailyrainin,SoftwareType,DateUTC
2013-02-19 00:00:00,38.2,26.0,30.41,SW,225,1.0,11.0,61,0.00,,,0.00,VWS V14.01,2013-02-19 05:00:00,
2013-02-19 00:30:00,37.5,26.1,30.43,SW,225,1.0,9.0,63,0.00,,,0.00,VWS V14.01,2013-02-19 05:30:00,
2013-02-19 01:00:00,36.5,25.9,30.42,WSW,248,0.0,5.0,65,0.00,,,0.00,VWS V14.01,2013-02-19 06:00:00,
2013-02-19 01:30:00,35.6,25.4,30.41,SSW,202,0.0,4.0,66,0.00,,,0.00,VWS V14.01,2013-02-19 06:30:00,
2013-02-19 02:00:00,34.8,25.3,30.40,SSW,202,0.0,3.0,68,0.00,,,0.00,VWS V14.01,2013-02-19 07:00:00,
2013-02-19 02:30:00,35.0,25.2,30.37,SW,225,0.0,4.0,67,0.00,,,0.00,VWS V14.01,2013-02-19 07:30:00,
2013-02-19 03:00:00,34.2,25.1,30.35,SSW,202,0.0,1.0,69,0.00,,,0.00,VWS V14.01,2013-02-19 08:00:00,
2013-02-19 03:30:00,33.3,24.9,30.34,SW,225,0.0,2.0,71,0.00,,,0.00,VWS V14.01,2013-02-19 08:30:00,
2013-02-19 04:00:00,33.1,24.4,30.33,SW,225,0.0,4.0,70,0.00,,,0.00,VWS V14.01,2013-02-19 09:00:00,
2013-02-19 04:30:00,32.7,24.0,30.31,SW,225,0.0,4.0,70,0.00,,,0.00,VWS V14.01,2013-02-19 09:30:00,
2013-02-19 05:00:00,32.4,25.0,30.31,SW,225,0.0,5.0,74,0.00,,,0.00,VWS V14.01,2013-02-19 10:00:00,
2013-02-19 05:30:00,32.6,25.6,30.30,South,180,0.0,1.0,75,0.00,,,0.00,VWS V14.01,2013-02-19 10:30:00,
2013-02-19 06:00:00,32.4,25.7,30.29,South,180,0.0,0.0,76,0.00,,,0.00,VWS V14.01,2013-02-19 11:00:00,
2013-02-19 06:30:00,32.5,26.1,30.28,South,180,0.0,0.0,77,0.00,,,0.00,VWS V14.01,2013-02-19 11:30:00,
2013-02-19 07:00:00,33.0,27.5,30.28,South,180,0.0,0.0,80,0.00,,,0.00,VWS V14.01,2013-02-19 12:00:00,
2013-02-19 07:30:00,33.7,29.1,30.28,South,180,0.0,0.0,83,0.00,,,0.00,VWS V14.01,2013-02-19 12:30:00,
2013-02-19 08:00:00,34.9,30.6,30.27,South,180,0.0,0.0,84,0.00,,,0.00,VWS V14.01,2013-02-19 13:00:00,
2013-02-19 08:30:00,36.2,31.8,30.27,South,180,0.0,0.0,84,0.00,,,0.00,VWS V14.01,2013-02-19 13:30:00,
2013-02-19 09:00:00,37.7,34.2,30.27,NW,315,0.0,5.0,87,0.02,,,0.02,VWS V14.01,2013-02-19 14:00:00,
2013-02-19 09:30:00,37.5,34.3,30.26,SSW,202,0.0,4.0,88,0.08,,,0.08,VWS V14.01,2013-02-19 14:30:00,
2013-02-19 10:00:00,37.6,34.9,30.22,South,180,0.0,2.0,90,0.14,,,0.14,VWS V14.01,2013-02-19 15:00:00,
2013-02-19 10:30:00,38.1,36.0,30.22,SSW,202,0.0,5.0,92,0.13,,,0.15,VWS V14.01,2013-02-19 15:30:00,
2013-02-19 11:00:00,38.9,37.0,30.21,WSW,248,0.0,6.0,93,0.08,,,0.16,VWS V14.01,2013-02-19 16:00:00,
2013-02-19 11:30:00,39.8,38.2,30.19,SW,225,1.0,10.0,94,0.03,,,0.17,VWS V14.01,2013-02-19 16:30:00,
2013-02-19 12:00:00,40.2,38.6,30.17,SW,225,1.0,9.0,94,0.02,,,0.17,VWS V14.01,2013-02-19 17:00:00,
2013-02-19 12:30:00,42.0,40.7,30.14,SW,225,2.0,10.0,95,0.03,,,0.19,VWS V14.01,2013-02-19 17:30:00,
2013-02-19 13:00:00,43.3,42.2,30.11,SW,225,2.0,12.0,96,0.03,,,0.20,VWS V14.01,2013-02-19 18:00:00,
2013-02-19 13:30:00,44.1,42.8,30.09,SW,225,2.0,12.0,95,0.03,,,0.20,VWS V14.01,2013-02-19 18:30:00,
2013-02-19 14:00:00,44.4,43.1,30.08,SW,225,2.0,12.0,95,0.01,,,0.20,VWS V14.01,2013-02-19 19:00:00,
2013-02-19 14:30:00,44.8,43.5,30.08,SW,225,1.0,8.0,95,0.00,,,0.20,VWS V14.01,2013-02-19 19:30:00,
2013-02-19 15:00:00,45.1,43.8,30.07,SW,225,1.0,6.0,95,0.00,,,0.20,VWS V14.01,2013-02-19 20:00:00,
2013-02-19 15:30:00,45.5,43.9,30.06,WNW,292,1.0,7.0,94,0.00,,,0.20,VWS V14.01,2013-02-19 20:30:00,
2013-02-19 16:00:00,46.0,44.1,30.06,SW,225,0.0,11.0,93,0.00,,,0.20,VWS V14.01,2013-02-19 21:00:00,
2013-02-19 16:30:00,46.3,43.8,30.06,SW,225,1.0,7.0,91,0.00,,,0.20,VWS V14.01,2013-02-19 21:30:00,
2013-02-19 17:00:00,46.3,43.5,30.07,NNW,338,0.0,11.0,90,0.00,,,0.20,VWS V14.01,2013-02-19 22:00:00,
2013-02-19 17:30:00,45.5,42.5,30.08,NW,315,0.0,6.0,89,0.00,,,0.20,VWS V14.01,2013-02-19 22:30:00,
2013-02-19 18:00:00,44.2,40.9,30.09,WSW,248,0.0,5.0,88,0.00,,,0.20,VWS V14.01,2013-02-19 23:00:00,
2013-02-19 18:30:00,42.4,39.1,30.11,WSW,248,0.0,0.0,88,0.00,,,0.20,VWS V14.01,2013-02-19 23:30:00,
2013-02-19 19:00:00,40.5,37.5,30.12,WSW,248,0.0,0.0,89,0.00,,,0.20,VWS V14.01,2013-02-20 00:00:00,
2013-02-19 19:30:00,39.5,37.1,30.13,South,180,0.0,3.0,91,0.00,,,0.20,VWS V14.01,2013-02-20 00:30:00,
2013-02-19 20:00:00,38.6,36.5,30.14,ESE,112,0.0,1.0,92,0.00,,,0.20,VWS V14.01,2013-02-20 01:00:00,
2013-02-19 20:30:00,37.5,35.4,30.14,ESE,112,0.0,0.0,92,0.00,,,0.20,VWS V14.01,2013-02-20 01:30:00,
2013-02-19 21:00:00,36.4,34.3,30.15,ESE,112,0.0,0.0,92,0.00,,,0.20,VWS V14.01,2013-02-20 02:00:00,
2013-02-19 21:30:00,35.3,33.2,30.16,WSW,248,0.0,4.0,92,0.00,,,0.20,VWS V14.01,2013-02-20 02:30:00,
2013-02-19 22:00:00,36.8,35.2,30.16,ENE,68,0.0,3.0,94,0.00,,,0.20,VWS V14.01,2013-02-20 03:00:00,
2013-02-19 22:30:00,36.2,34.6,30.17,NNW,338,0.0,1.0,94,0.00,,,0.20,VWS V14.01,2013-02-20 03:30:00,
2013-02-19 23:00:00,34.4,32.6,30.17,NNW,338,0.0,0.0,93,0.00,,,0.20,VWS V14.01,2013-02-20 04:00:00,
2013-02-19 23:30:00,32.7,30.9,30.18,NNW,338,0.0,0.0,93,0.00,,,0.20,VWS V14.01,2013-02-20 04:30:00,